Flight Information

DEPARTURE
DENVER, CO
Elevation:
5884
Runways:
10/28 - 4800x75 - ASPH-G
17L/35R - 10001x100 - ASPH-G
17R/35L - 7001x75 - ASPH-G
Active PE Departure:
35L - 35R
Current PE ATIS:
K
Altimeter:
29.75
Remarks:
ATIS:
120.3 303-799-6722
Clearance Delivery:
128.6
Ground:
121.8
Tower:
CENTENNIAL TOWER 118.9
DESTINATION
,
Elevation:
TPA:
1000 (est.)


6083.4 NM80° True-11° Var69° HDG

Flight Plan:
(click to file on line)

1. Type
2. Aircraft Identification
3. Aircraft Type / Special Equipment
4. True Airspeed
kts
5. Departure Airport
(ICAO code)
6. Arriving Airport
(ICAO code)
7. Cruising Altitude
ft
8. Alternate Airport
(ICAO code)
9. Route of Flight
10. Remarks


00:00:00 Departure ATIS: Destination ATIS:

Clearance Limit:
Route:
Altitude: Expect in minutes
Frequency:
Transponder: (7500 Hijack / 7600 Lost Comms / 7700 Emergency)


KAPA 110353Z 28009KT 10SM FEW120 SCT140 14/M14 A2975 RMK AO2 SLP038 T01441139
Time: 2021-04-11T03:53:00Z
1618115582
Winds: 280 @ 9 kts
Visibility: 10.0 sm
Clouds (AGL): FEW 12000
SCT 14000
Temperature: 14.4 C
Dew Point: -13.9 C
Pressure: 29.749016 in Hgbr


Notes:

Data extracted from FAA Digital Chart Supplement. Effective: 0901Z Thursday, Feb 25, 2021 to 0901Z Thursday, APR 22, 2021
Current ATIS data is provided courtisy of PilotEdge.